Theta_e
335 342 347 348 350 350 349 349 349 348 346 344 344 343 342 341 340 340 342 340 342 340 343 340 339 336 338 337 338 338 337 337 336 335 337 337 338 338 338 339 337 332 336
338 343 346 348 349 349 349 349 349 348 345 343 342 341 340 339 339 339 340 341 341 339 341 339 337 336 336 335 336 336 335 335 335 334 335 337 336 335 336 337 338 334 337
340 344 346 347 349 348 349 348 348 347 343 342 341 339 338 338 338 337 338 341 341 339 340 340 336 336 336 334 334 334 334 334 333 333 333 331 330 334 334 334 336 336 336
341 343 346 345 348 347 347 347 347 346 343 341 340 338 338 338 337 337 340 340 340 338 340 336 336 335 335 333 333 333 333 334 332 331 330 329 329 334 335 334 333 332 333
341 343 344 345 348 348 347 348 347 346 345 343 340 338 337 336 336 337 340 339 338 338 338 336 335 334 333 333 333 334 333 332 330 330 329 328 328 332 334 332 331 332 332
338 341 343 345 347 347 347 347 347 346 345 344 340 339 337 337 337 337 336 338 337 336 337 335 335 333 333 334 333 333 333 331 329 329 328 331 332 335 335 333 333 332 332
336 339 343 344 345 346 347 346 346 345 344 344 342 339 337 336 335 335 336 337 336 335 335 335 334 333 333 333 333 332 331 329 329 328 328 330 333 335 334 334 333 333 333
335 337 341 337 339 342 345 344 344 344 344 343 342 339 338 336 335 334 334 334 335 333 335 335 334 332 333 332 332 331 329 327 327 328 329 331 335 334 334 333 332 332 332
335 336 337 338 337 334 337 338 338 339 340 342 341 340 338 337 336 335 334 332 333 334 334 334 334 332 332 331 331 329 327 326 328 328 327 329 332 333 333 334 333 333 333
333 334 333 333 333 333 334 329 331 334 335 334 334 332 332 332 332 332 330 332 331 333 333 332 332 333 331 330 329 327 325 325 328 329 330 331 335 332 334 333 333 333 334
330 331 330 329 329 329 330 326 326 328 328 327 327 326 327 331 331 330 328 331 331 332 331 329 329 329 330 328 327 324 322 326 328 329 329 330 334 331 329 331 332 333 333
325 328 329 328 327 327 327 327 328 327 328 327 327 328 329 329 329 329 324 325 327 328 330 329 327 324 322 325 325 321 324 324 324 324 326 328 331 329 328 331 331 332 332
325 327 328 327 327 327 326 326 326 326 326 325 325 326 326 327 327 327 327 325 325 319 323 322 323 323 322 322 323 322 321 321 322 322 322 324 328 330 328 329 330 331 331
324 326 329 327 326 326 325 325 325 325 324 324 324 324 325 325 325 324 324 323 322 322 322 323 323 322 321 321 322 322 321 321 321 322 322 319 325 330 330 329 330 331 329
323 325 327 327 325 325 324 324 324 324 323 324 323 324 324 324 324 323 323 322 321 320 321 322 322 321 320 320 320 321 321 321 320 321 323 316 324 329 328 328 329 330 327
324 324 326 327 326 325 324 323 323 323 324 323 323 323 323 324 323 323 322 321 320 319 320 321 322 321 320 319 319 319 320 321 321 321 322 323 323 326 327 328 329 329 327
324 324 325 327 327 325 324 323 323 323 323 323 322 323 323 323 323 323 322 320 320 320 319 320 320 320 319 318 318 318 319 319 320 320 321 323 325 321 324 327 329 327 325
325 324 325 327 327 326 325 324 323 323 323 323 323 323 323 323 323 322 321 320 319 319 320 320 320 318 318 318 318 318 318 318 319 319 320 321 323 323 323 325 326 325 323
326 325 324 326 326 326 326 325 324 323 322 323 323 323 322 323 323 323 322 321 320 320 320 319 319 318 318 317 317 318 318 318 318 318 319 320 322 321 321 321 319 319 322
325 326 326 325 325 326 326 325 324 323 322 322 322 323 323 323 323 323 322 322 321 320 320 318 317 317 318 318 315 316 319 319 319 318 319 318 318 315 318 317 317 315 317
324 324 325 325 325 324 323 322 321 321 322 322 322 322 323 323 323 323 323 322 321 320 321 320 318 317 317 317 317 318 318 319 318 319 320 319 316 314 312 313 313 313 311
323 324 324 325 326 325 325 325 325 324 324 324 324 323 323 323 324 324 324 323 322 321 320 319 318 317 317 317 317 315 313 316 316 318 319 318 318 312 309 310 309 307 305
322 323 324 324 326 326 327 326 324 323 322 322 322 323 322 323 323 323 323 323 322 322 322 320 319 317 317 316 318 317 310 309 311 315 314 316 315 312 313 310 306 303 303
321 324 324 325 325 327 328 326 324 323 322 324 325 325 325 323 323 323 323 322 322 321 321 321 320 320 319 317 314 316 319 315 311 307 313 313 315 312 311 310 306 300 300
320 322 324 324 324 325 327 328 326 325 326 327 326 324 325 324 324 323 322 322 321 321 321 321 319 319 319 319 318 317 315 317 314 309 309 310 309 312 313 310 307 304 300
314 320 323 323 323 324 324 326 326 325 325 324 323 322 323 324 323 324 323 323 322 322 321 321 321 320 319 319 319 319 317 314 313 312 309 312 310 311 310 310 307 305 302
Wind_Speed
4 3 5 10 14 15 14 17 17 16 16 16 17 17 17 16 16 14 13 15 16 16 17 19 17 16 17 17 18 20 19 20 20 20 20 20 20 21 21 19 15 17 19
9 5 8 9 12 14 15 14 14 15 16 15 16 16 15 16 14 14 14 13 16 14 16 17 18 16 17 17 17 18 19 19 19 17 15 17 18 19 20 18 17 18 18
10 7 8 10 11 12 13 13 14 15 15 15 15 15 16 15 14 14 13 14 14 16 15 17 17 17 17 17 17 17 18 18 17 16 14 13 14 18 18 17 17 17 18
10 7 8 10 11 11 11 12 14 15 15 15 16 15 15 15 14 14 13 13 14 15 15 16 17 17 16 17 17 18 18 16 15 14 12 12 12 17 17 17 16 16 16
8 8 7 9 12 11 11 12 12 13 14 15 16 15 14 14 14 13 12 13 15 14 15 16 16 16 16 17 17 17 16 15 13 11 12 11 9 14 16 15 14 15 14
7 7 8 8 11 11 10 11 12 12 13 14 15 15 14 14 12 12 12 12 15 14 14 15 16 16 16 16 17 16 15 13 11 12 11 8 8 13 14 13 12 10 10
7 7 7 9 10 9 10 10 11 11 11 13 14 15 14 14 13 12 12 12 14 12 13 14 14 15 15 16 16 14 13 12 9 9 8 5 10 13 12 11 9 9 9
9 6 6 8 8 8 9 9 8 11 11 15 15 15 14 13 12 12 12 12 12 12 12 13 14 15 15 15 14 12 11 10 8 6 5 6 9 10 9 8 6 6 6
8 7 6 7 7 7 6 7 7 11 10 12 13 15 15 14 12 11 10 11 10 12 12 12 13 13 14 13 12 11 10 9 7 4 5 5 6 8 8 8 5 5 5
8 7 7 6 6 6 5 8 8 7 10 12 11 9 12 13 11 10 8 9 10 11 12 12 11 11 12 11 10 9 8 6 5 4 4 4 5 7 9 7 7 8 8
5 7 6 6 7 6 6 6 10 10 11 12 12 11 8 7 7 8 7 9 10 10 11 11 11 10 9 9 8 7 5 3 3 2 2 8 9 7 6 5 5 7 10
10 7 7 8 8 7 5 6 7 6 6 6 6 7 4 6 5 6 7 8 8 7 8 9 9 8 6 4 4 4 2 2 2 1 1 6 6 5 4 5 4 7 9
12 8 9 8 7 8 7 5 3 3 4 4 6 6 5 4 4 3 3 3 3 4 3 3 4 3 4 3 3 2 3 2 1 1 2 5 5 4 4 3 4 6 10
12 12 11 10 8 7 5 5 5 5 4 4 6 7 5 3 3 3 3 3 3 2 3 2 2 3 3 3 4 3 4 3 2 2 2 5 5 7 3 2 4 7 9
13 12 12 10 10 8 8 6 6 6 5 6 6 7 6 5 4 3 3 3 2 2 2 2 2 2 2 3 3 4 4 4 5 3 3 6 6 7 0 1 3 7 9
12 13 12 12 11 10 9 9 7 6 7 6 5 6 7 5 5 5 4 3 3 3 2 2 2 2 3 3 4 4 5 5 5 5 4 4 7 6 1 1 4 8 8
11 11 13 13 11 11 10 9 7 7 6 7 6 8 8 7 7 6 4 4 4 4 5 3 4 3 3 3 5 4 4 6 5 6 5 4 4 6 4 3 6 6 6
11 13 12 10 12 12 10 8 7 7 7 6 6 7 9 9 8 6 5 5 5 4 4 4 4 3 4 4 4 4 5 5 7 7 5 5 4 3 5 4 5 7 7
13 13 13 13 14 13 11 9 9 9 8 7 6 7 9 9 9 7 6 6 6 5 5 4 4 4 4 5 5 5 5 5 7 5 8 8 9 7 5 8 9 8 8
12 13 12 12 13 13 9 7 6 6 6 6 7 8 11 9 10 9 6 7 6 6 6 5 6 5 5 5 5 6 6 6 6 7 8 7 7 5 7 7 6 6 8
12 13 15 15 14 10 8 7 7 8 8 7 8 11 10 9 10 10 8 8 8 8 9 8 6 7 5 4 3 5 5 9 8 8 8 8 7 8 7 7 5 4 3
16 16 15 16 15 13 10 8 6 7 7 7 7 9 11 11 12 10 10 9 10 8 9 9 8 3 4 5 4 1 4 3 6 8 7 8 11 6 6 9 8 7 3
15 18 17 17 16 15 15 7 4 3 1 5 7 8 10 12 11 12 11 10 9 9 8 9 9 10 8 5 10 5 2 5 1 3 7 8 10 8 9 10 10 7 7
17 13 16 16 17 15 16 12 14 11 11 9 8 8 9 12 13 12 12 11 10 7 9 9 8 10 9 9 3 8 9 4 5 3 4 7 10 10 12 10 10 9 9
16 16 16 16 16 16 16 17 13 14 11 8 8 10 10 9 12 12 12 10 11 9 11 11 10 11 9 9 9 5 8 8 10 9 11 5 5 9 10 11 12 11 13
11 13 13 15 16 16 17 19 18 17 14 9 9 9 8 8 7 11 11 11 11 11 11 10 11 12 11 10 9 9 10 7 6 8 9 12 11 7 10 10 11 10 11
Wind_Direction
189 166 132 130 117 114 111 110 108 103 102 101 98 93 91 89 89 90 91 93 87 85 84 86 79 82 81 81 82 77 75 72 71 74 72 75 72 69 67 67 79 74 66
146 154 130 127 119 117 118 115 112 109 106 104 101 99 96 96 95 97 97 92 90 85 81 82 83 82 84 85 79 77 76 74 69 66 62 72 70 71 65 63 65 66 67
141 147 140 129 123 121 124 125 118 112 110 103 102 102 99 101 99 100 102 93 91 81 87 88 86 84 85 84 81 79 79 72 65 60 60 73 71 69 69 62 65 65 64
142 141 139 135 132 131 131 130 127 124 121 114 108 104 103 104 102 102 103 93 87 85 92 90 86 86 86 85 85 85 80 70 64 60 69 69 71 71 73 72 67 63 58
141 137 138 133 136 139 134 134 132 127 124 120 115 111 105 104 104 109 96 98 90 84 90 90 88 89 90 90 86 84 79 70 62 69 72 66 67 73 76 70 58 53 53
141 141 147 137 137 138 135 134 133 132 129 127 121 116 109 102 95 100 97 87 85 85 93 92 91 94 95 93 90 87 79 73 70 76 76 69 68 77 77 74 74 74 67
147 147 152 148 140 138 145 149 144 137 132 131 124 118 112 109 106 102 103 92 93 96 94 98 98 101 100 94 91 89 83 74 76 76 73 70 75 72 67 68 65 63 60
149 156 153 142 132 136 152 152 154 133 134 139 135 123 114 108 104 105 107 105 107 105 101 105 101 102 101 100 96 90 78 67 70 70 57 62 76 71 65 57 69 59 48
147 153 153 147 143 128 127 139 135 120 119 126 130 131 124 113 100 96 98 108 114 108 99 102 105 103 102 101 97 91 83 74 79 62 55 61 51 50 42 21 33 43 56
152 159 156 150 142 135 131 108 103 104 101 87 86 85 102 102 99 93 80 93 107 107 101 94 94 105 107 107 102 94 83 78 80 63 28 14 24 49 49 42 48 56 83
165 167 162 151 144 140 129 113 90 85 92 100 97 94 92 104 113 107 95 91 101 111 114 106 96 96 100 106 108 96 94 89 86 52 14 1 7 30 26 39 51 74 95
182 184 174 161 156 144 137 128 119 123 129 120 113 109 102 115 124 122 106 95 89 89 100 105 101 95 109 127 127 115 118 121 117 70 3 351 353 3 7 26 71 96 107
187 185 185 169 167 157 153 150 143 138 129 122 123 127 133 133 134 130 127 123 127 111 113 96 98 100 132 155 165 173 172 166 175 210 307 332 327 326 355 6 95 126 116
183 185 186 173 173 173 157 165 162 159 159 156 161 159 158 153 157 157 157 158 161 151 142 120 136 143 148 173 190 200 212 211 220 234 263 300 298 297 356 0 89 135 111
185 183 189 185 174 175 173 173 181 181 176 179 181 181 171 175 179 177 185 184 187 173 187 187 184 180 199 209 213 222 224 227 230 234 248 273 277 290 218 37 147 157 124
191 189 183 188 185 175 184 183 188 191 188 186 191 192 190 186 184 194 198 204 200 208 210 238 242 234 234 229 233 228 236 234 233 234 239 254 266 273 271 253 167 157 134
197 186 188 189 186 190 192 187 188 199 197 195 198 198 196 194 200 199 202 205 211 208 212 222 234 235 248 245 256 243 241 243 242 235 233 239 252 268 272 221 171 169 164
187 187 185 187 189 193 197 196 196 196 202 208 205 204 205 204 201 204 208 214 211 209 215 223 229 242 251 249 257 250 242 241 244 240 235 233 232 236 222 205 203 201 187
191 185 189 189 192 195 199 199 198 200 204 208 210 211 213 211 208 213 217 222 209 214 220 226 229 230 241 244 252 257 251 247 246 239 234 227 226 215 213 206 201 199 205
193 192 191 191 197 195 194 201 206 202 210 208 214 214 211 212 208 212 222 224 215 222 230 223 229 221 240 248 258 265 259 252 247 239 236 227 220 218 220 221 210 206 205
194 195 195 192 197 187 187 193 214 214 210 215 215 215 211 209 207 212 221 219 215 221 224 218 220 232 240 228 268 262 257 242 236 235 237 235 223 208 206 221 226 221 216
204 204 200 204 194 193 195 198 201 190 214 216 207 212 214 211 208 210 216 220 215 220 225 221 212 226 238 192 227 258 286 254 236 237 225 226 229 208 213 218 222 224 244
208 204 204 205 199 196 197 182 164 165 166 187 208 212 213 212 212 211 214 221 220 215 226 222 212 214 237 208 214 226 261 237 309 192 225 221 221 211 223 220 215 214 215
218 209 210 206 204 201 190 192 200 207 216 214 215 211 209 206 214 213 217 218 219 214 223 219 210 218 218 236 208 231 245 261 262 275 228 222 220 215 211 216 215 201 204
207 206 204 203 203 201 195 200 201 211 219 212 204 206 212 206 213 213 215 214 219 218 225 221 213 213 211 227 221 210 224 235 238 245 274 233 229 224 216 219 210 206 204
202 205 202 198 207 197 198 203 204 211 214 206 205 206 212 211 209 215 211 215 221 225 227 226 230 225 221 225 233 228 225 224 222 228 250 260 244 222 223 213 220 224 215